Location: Praha
(50.0830°N, 14.4670°E)
Time: 19:09:09
(UTC+02:00)

ISS - Pass Details

Date: 15 July 2021
Orbit: 419 x 421 km, 51.6° (Epoch: 04 August)

Event Time Altitude Azimuth Distance (km) Brightness Sun altitude
Rises 02:56:23 0° 287° (WNW) 2,372 0.0 -14.5°
Reaches altitude 10° 02:58:30 10° 284° (WNW) 1,505 -1.1 -14.3°
Maximum altitude 03:01:51 65° 203° (SSW) 466 -3.8 -14.1°
Drops below altitude 10° 03:05:11 10° 121° (ESE) 1,498 -1.0 -13.9°
Sets 03:07:17 0° 118° (ESE) 2,360 0.1 -13.7°
